Weather Service Report


093 
ASUS41 KCLE 281810
RWRCLE
OHIO REGIONAL WEATHER ROUNDUP
NATIONAL WEATHER SERVICE CLEVELAND, OH
200 PM EDT THU AUG 28 2014

NOTE: "FAIR" INDICATES FEW OR NO CLOUDS BELOW 12,000 FEET WITH NO
SIGNIFICANT WEATHER AND/OR OBSTRUCTIONS TO VISIBILITY.

OHZ001>008-015>018-024>027-034-035-043-044-281900-
   NORTHWEST OHIO
  
CITY           SKY/WX    TMP DP  RH WIND       PRES   REMARKS
DEFIANCE       PTSUNNY   75  59  57 NE5       30.13F                  
FINDLAY        PTSUNNY   76  57  51 CALM      30.12F                  
TOLEDO EXPRESS MOSUNNY   74  57  55 VRB3      30.13F                  
TOLEDO EXEC    PTSUNNY   71  56  58 NE6       30.15F                  
LIMA           PTSUNNY   74  61  63 NE7       30.13F                  
$$

OHZ009>014-019>023-028>033-038-089-281900-
   NORTHEAST OHIO
  
CITY           SKY/WX    TMP DP  RH WIND       PRES   REMARKS
CLE-HOPKINS    MOSUNNY   69  55  60 N10       30.17S                  
CLE-LAKEFRONT  SUNNY     69  52  54 N10       30.15S                  
CUY CO. ARPT   MOSUNNY   70  55  60 N12       30.16S                  
LORAIN-ELYRIA  MOSUNNY   73  56  54 N10       30.16S                  
ASHTABULA      MOSUNNY   67  52  58 N8        30.15S                  
AKRON-CANTON   PTSUNNY   73  52  47 NW8G17    30.13F                  
WOOSTER        MOSUNNY   73  55  53 VRB5      30.15F                  
MANSFIELD      PTSUNNY   72  55  55 N9        30.15F                  
YOUNGSTOWN     MOSUNNY   70  49  47 N8G17     30.13F                  
$$

OHZ042-051>053-060>062-070>072-077>081-281900-
  SOUTHWEST OHIO
  
CITY           SKY/WX    TMP DP  RH WIND       PRES   REMARKS
CINC-COVINGTON MOSUNNY   82  63  52 E5        30.08F                  
CINC-LUNKEN    SUNNY     82  65  56 VRB5      30.08F                  
HAMILTON       SUNNY     81  65  58 NE8       30.10F                  
DAYTON         MOSUNNY   79  62  56 E6        30.12F                  
WRIGHT-PAT AFB SUNNY     77  62  59 VRB5      30.11F                  
DAYTON GENERAL SUNNY     78  64  61 SE5       30.10F                  
WILMINGTON     SUNNY     76  62  62 SE8       30.11F                  
$$

OHZ036-037-039>041-045>050-054>059-063>069-073>076-082>088-281900-
  CENTRAL AND SOUTHEAST OHIO
  
CITY           SKY/WX    TMP DP  RH WIND       PRES   REMARKS
COLUMBUS       MOSUNNY   78  58  49 VRB3      30.11F                  
OSU AIRPORT    MOSUNNY   76  59  55 VRB5      30.12F                  
BOLTON FIELD   MOSUNNY   75  61  60 CALM      30.12F                  
RICKENBACK AFB SUNNY     78  53  42 E8        30.11S                  
NEWARK         MOSUNNY   74  58  57 VRB5      30.12F                  
MARION         PTSUNNY   72  58  61 NE9       30.14F                  
LANCASTER      SUNNY     77  59  53 NE8       30.12F                  
ZANESVILLE     PTSUNNY   72  55  55 MISG      30.13F                  
NEW PHILLY     PTSUNNY   72  57  59 N7        30.14F                  
$$


156 
ASUS41 KCLE 281810
RWRCLE
OHIO REGIONAL WEATHER ROUNDUP
NATIONAL WEATHER SERVICE WILMINGTON, OH
200 PM EDT THU AUG 28 2014

NOTE: "FAIR" INDICATES FEW OR NO CLOUDS BELOW 12,000 FEET WITH NO
SIGNIFICANT WEATHER AND/OR OBSTRUCTIONS TO VISIBILITY.

OHZ001>008-015>018-024>027-034-035-043-044-281900-
   NORTHWEST OHIO
  
CITY           SKY/WX    TMP DP  RH WIND       PRES   REMARKS
DEFIANCE       PTSUNNY   75  59  57 NE5       30.13F                  
FINDLAY        PTSUNNY   76  57  51 CALM      30.12F                  
TOLEDO EXPRESS MOSUNNY   74  57  55 VRB3      30.13F                  
TOLEDO METCALF PTSUNNY   71  56  58 NE6       30.15F                  
LIMA           PTSUNNY   74  61  63 NE7       30.13F                  
$$
 
OHZ009>014-019>023-028>033-038-089-281900-
   NORTHEAST OHIO
  
CITY           SKY/WX    TMP DP  RH WIND       PRES   REMARKS
CLE-HOPKINS    MOSUNNY   69  55  60 N10       30.17S                  
CLE-LAKEFRONT  SUNNY     69  52  54 N10       30.15S                  
CUY CO. ARPT   MOSUNNY   70  55  60 N12       30.16S                  
LORAIN-ELYRIA  MOSUNNY   73  56  54 N10       30.16S                  
ASHTABULA      MOSUNNY   67  52  58 N8        30.15S                  
AKRON-CANTON   PTSUNNY   73  52  47 NW8G17    30.13F                  
WOOSTER        MOSUNNY   73  55  53 VRB5      30.15F                  
MANSFIELD      PTSUNNY   72  55  55 N9        30.15F                  
YOUNGSTOWN     MOSUNNY   70  49  47 N8G17     30.13F                  
$$
 
OHZ042-051>053-060>062-070>072-077>081-281900-
  SOUTHWEST OHIO
  
CITY           SKY/WX    TMP DP  RH WIND       PRES   REMARKS
CINC-COVINGTON MOSUNNY   82  63  52 E5        30.08F                  
CINC-LUNKEN    SUNNY     82  65  56 VRB5      30.08F                  
HAMILTON       SUNNY     81  65  58 NE8       30.10F                  
DAYTON         MOSUNNY   79  62  56 E6        30.12F                  
WRIGHT-PAT AFB SUNNY     77  62  59 VRB5      30.11F                  
DAYTON GENERAL SUNNY     78  64  61 SE5       30.10F                  
WILMINGTON     SUNNY     76  62  62 SE8       30.11F                  
$$

OHZ036-037-039>041-045>050-054>059-063>069-073>076-082>088-281900-
  CENTRAL AND SOUTHEAST OHIO
  
CITY           SKY/WX    TMP DP  RH WIND       PRES   REMARKS
COLUMBUS       MOSUNNY   78  58  49 VRB3      30.11F                  
OSU AIRPORT    MOSUNNY   76  59  55 VRB5      30.12F                  
BOLTON FIELD   MOSUNNY   75  61  60 CALM      30.12F                  
RICKENBACK AFB SUNNY     78  53  42 E8        30.11S                  
NEWARK         MOSUNNY   74  58  57 VRB5      30.12F                  
MARION         PTSUNNY   72  58  61 NE9       30.14F                  
LANCASTER      SUNNY     77  59  53 NE8       30.12F                  
ZANESVILLE     PTSUNNY   72  55  55 MISG      30.13F                  
NEW PHILLY     PTSUNNY   72  57  59 N7        30.14F                  
$$

Return to Home page


Western Regional Climate Center, wrcc@dri.edu